Regional Weather Roundup
Issued by NWS

Home | Current Version | Previous Version | Text Only | Print | Product List | Glossary Off
Versions: 1 2 3 4 5 6 7 8 9 10 11 12 13 14 15 16 17 18 19 20 21 22 23 24 25 26 27 28 29 30 31 32 33 34 35 36 37 38 39 40 41 42 43 44 45 46 47 48 49 50

000
ASUS43 KLOT 250410
RWRIL

ILLINOIS REGIONAL WEATHER ROUNDUP
NATIONAL WEATHER SERVICE CHICAGO/ROMEOVILLE IL
1100 PM CDT THU JUL 24 2014

NOTE: "FAIR" INDICATES FEW OR NO CLOUDS BELOW 12,000 FEET WITH NO
SIGNIFICANT WEATHER AND/OR OBSTRUCTIONS TO VISIBILITY.

* THESE STATIONS ARE NOT UNDER NWS QUALITY CONTROL. THEY ALSO MAY NOT
  REPORT WEATHER SUCH AS PRECIPITATION OR FOG.

ILZ001-002-007-009-015-016-024-250500-
NORTHWEST ILLINOIS

CITY           SKY/WX    TMP DP  RH WIND       PRES   REMARKS
MOLINE         CLOUDY    65  57  75 S8        30.00F
STERLING*      MOCLDY    64  54  68 S7        30.02F
SAVANNA*       MOCLDY    65  55  69 SE7       30.00F
$$

ILZ003-004-008-010-011-017-018-250500-
NORTH CENTRAL ILLINOIS

CITY           SKY/WX    TMP DP  RH WIND       PRES   REMARKS
ROCKFORD       PTCLDY    63  55  75 SE6       30.06F
FREEPORT*      PTCLDY    58  55  89 SE7       30.03F
ROCHELLE*      CLEAR     58  55  88 CALM      30.04F
DE KALB*       CLEAR     57  50  77 SE7       30.07S
PERU*          MOCLDY    65  53  65 SE6       30.05S
$$

ILZ005-006-012>014-019>023-250500-
NORTHEAST ILLINOIS

CITY           SKY/WX    TMP DP  RH WIND       PRES   REMARKS
CHICAGO-OHARE  PTCLDY    61  44  53 S7        30.05F
CHICAGO-MIDWAY PTCLDY    66  51  58 SE6       30.06F
AURORA         CLEAR     59  48  67 SE5       30.06S
LANSING*       CLEAR     58  50  76 CALM      30.07F
JOLIET*        PTCLDY    59  49  67 SE3       30.08R
WAUKEGAN       PTCLDY    56  51  84 S5        30.05S
DUPAGE AIRPORT CLEAR     60  47  61 SE7       30.05F
KANKAKEE*      MOCLDY    58  52  82 NE6       30.07F
WHEELING       PTCLDY    62  48  60 CALM      30.06F
MORRIS*        PTCLDY    60  52  75 E6        30.07R
ROMEOVILLE*    CLEAR     58  49  73 CALM      30.07R
$$

LMZ740>746-250500-
SOUTHERN LAKE MICHIGAN

STATION/POSITION SKY/WX   TEMP    WIND        PRES    VSBY  WAVE
                          AIR SEA DIR/SP/G                  HT/PER
                          (F)     (DEG/KT/KT) (MB)    (MI)  (FT/S)
SOUTHERN BUOY              61 61  160/  6/  8 1017.7F
WAUKEGAN HARBOR            64     170/  9/ 11   N/A
HARRISON CRIB              65     150/  8/ 11   N/A
CALUMET HARBOR             65     110/  5/  7 1016.7F
MICHIGAN CITY              61      90/  4/  5   N/A
MICHIGAN CITY 6N           64 69  120/  6/  8   N/A           1/ 2
ST. JOSEPH                 56 52  240/  2/  4   N/A           1/ 3
$$

ILZ025>027-034>036-040-047-049-050-058-095>099-250500-
WEST-CENTRAL ILLINOIS

CITY           SKY/WX    TMP DP  RH WIND       PRES   REMARKS
QUINCY         MOCLDY    66  57  72 S7        30.01F
GALESBURG*     CLOUDY    66  57  74 CALM      30.03R
MACOMB*        MOCLDY    63  59  87 CALM      30.04R
JACKSONVILLE*  PTCLDY    64  57  77 SE7       30.04F
PITTSFIELD*    PTCLDY    63  58  82 SE5       30.04F
$$

ILZ028>032-037-038-041>044-048-051>054-059>061-250500-
CENTRAL ILLINOIS

CITY           SKY/WX    TMP DP  RH WIND       PRES   REMARKS
PONTIAC        CLOUDY    61  57  88 CALM      30.06S
DECATUR        MOCLDY    64  59  83 CALM      30.06F
PEORIA         CLOUDY    70  54  56 E6        30.04F
LACON*         CLOUDY    65  54  66 E9        30.03R
LINCOLN*       PTCLDY    63  58  86 CALM      30.02F
SPRINGFIELD    CLEAR     61  56  83 CALM      30.03F
TAYLORVILLE    CLEAR     59  55  88 CALM      30.04F
$$

ILZ033-039-045-046-055>057-062-063-250500-
EAST-CENTRAL ILLINOIS

CITY           SKY/WX    TMP DP  RH WIND       PRES   REMARKS
CHAMPAIGN      CLOUDY    63  55  75 E5        30.06F
DANVILLE*      PTCLDY    58  56  96 CALM      30.04F
RANTOUL*       CLOUDY    64  54  68 SE3       30.07F
MATTOON        MOCLDY    64  57  78 CALM      30.06F
PARIS*         MOCLDY    58  57  96 CALM      30.07F
$$

ILZ079-100>102-250500-
SOUTHWEST ILLINOIS

CITY           SKY/WX    TMP DP  RH WIND       PRES   REMARKS
ALTON          CLEAR     61  58  91 CALM      30.05F
BELLEVILLE     CLEAR     63  60  90 E3        30.04F
CAHOKIA*       CLEAR     63  57  81 CALM      30.04F
SPARTA*        CLEAR     64  55  72 CALM      30.07R
$$

ILZ064>066-069>071-074>076-080>082-084>086-088>090-092>094-250500-
SOUTH-CENTRAL ILLINOIS

CITY           SKY/WX    TMP DP  RH WIND       PRES   REMARKS
CARBONDALE     PTCLDY    63  59  87 CALM      30.06R
CAIRO*         CLEAR     64  60  85 CALM      30.05S
EFFINGHAM*     PTCLDY    62  55  80 CALM      30.06F
MARION         PTCLDY    64  61  88 CALM      30.06R
MT. VERNON     PTCLDY    61  55  82 CALM      30.07S
CENTRALIA*     CLEAR     59  56  88 CALM      30.06S
SALEM*         CLEAR     61  59  91 CALM      30.07S
METROPOLIS*    CLEAR     61  58  91 CALM      30.04F
$$

ILZ067-068-072-073-078-083-087-091-250500-
SOUTHEAST ILLINOIS

CITY           SKY/WX    TMP DP  RH WIND       PRES   REMARKS
LAWRENCEVILLE  MOCLDY    64  61  90 CALM      30.05F
FLORA*         MOCLDY    60  58  92 CALM      30.07S
FAIRFIELD*     MOCLDY    63  61  94 CALM      30.06R
HARRISBURG*    PTCLDY    62  61  99 CALM      30.07S
ROBINSON*      MOCLDY    60  58  94 CALM      30.06F
CARMI*         PTCLDY    63  63 100 CALM      30.05S
$$

ABBREVIATIONS USED IN REMARKS
   TC - TEMPERATURE IN CELSIUS
  WCI - WIND CHILL INDEX
   HX - HEAT INDEX
  VSB - VISIBILITY
$$




USA.gov is the U.S. government's official web portal to all federal, state and local government web resources and services.